Date String (YYYY-MM-DD hh:mm:ss) UTC,Instrument flags,absolute air pressure of the measurement (hPa),sample flow rate (lpm),inlet stack bypass flow (lpm),air temperature of the measurement (°C),ambient temperature measured by the external sensor (°C),aerosol sample conditioner tube jacket temperature (°C),OPC LED temperature (°C),internal box temperature (°C),relative humidity of the measurement (%),span deviation,mass concentration of particles derived from Lorenz-Mie calculation of OPC scattering (μg/m³),mass concentration of particles derived from Lorenz-Mie calculation of OPC scattering (μg/m³),mass concentration of particles derived from Lorenz-Mie calculation of OPC scattering (μg/m³)
DateTimeUTC,F1_M11,P_M11,Q1_M11,Q2_M11,T1_M11,T2_M11,T3_M11,T4_M11,T5_M11,U1_M11,ZSPAN_M11,X2_M11,X0_M11,X1_M11
2023-12-01 03:00:00,SystemResetWarning,0822.1,5.01,000.00,021.2,020.3,000.0,029.7,022.4,11.9,0000.0,0005.05,0010.61,0004.58
2023-12-01 03:01:00,SystemResetWarning,0822.1,4.99,000.00,021.2,020.3,000.0,029.7,022.4,11.9,0000.0,0005.08,0010.39,0004.59
2023-12-01 03:02:00,SystemResetWarning,0822.1,4.99,000.00,021.2,020.3,000.0,029.7,022.4,11.9,0000.0,0005.15,0010.54,0004.61
2023-12-01 03:03:00,SystemResetWarning,0822.1,5.00,000.00,021.2,020.3,000.0,029.7,022.4,11.9,0000.0,0005.23,0010.60,0004.64
2023-12-01 03:04:00,SystemResetWarning,0822.1,5.00,000.00,021.2,020.3,000.0,029.7,022.4,11.9,0000.0,0005.22,0010.43,0004.66
2023-12-01 03:05:00,SystemResetWarning,0822.1,5.01,000.00,021.2,020.3,000.0,029.7,022.4,11.9,0000.0,0005.23,0010.55,0004.68
2023-12-01 03:06:00,SystemResetWarning,0822.2,5.01,000.00,021.2,020.3,000.0,029.6,022.4,12.0,0000.0,0005.26,0010.28,0004.70
2023-12-01 03:07:00,SystemResetWarning,0822.1,5.01,000.00,021.2,020.3,000.0,029.6,022.4,12.0,0000.0,0005.29,0010.38,0004.72
2023-12-01 03:08:00,SystemResetWarning,0822.1,4.99,000.00,021.2,020.3,000.0,029.6,022.4,12.0,0000.0,0005.32,0010.48,0004.72
2023-12-01 03:09:00,SystemResetWarning,0822.1,4.99,000.00,021.2,020.3,000.0,029.6,022.5,12.1,0000.0,0005.36,0010.60,0004.74
2023-12-01 03:10:00,SystemResetWarning,0822.1,4.99,000.00,021.2,020.3,000.0,029.6,022.5,12.1,0000.0,0005.39,0010.39,0004.76
2023-12-01 03:11:00,SystemResetWarning,0822.1,5.01,000.00,021.2,020.3,000.0,029.6,022.5,12.1,0000.0,0005.43,0010.57,0004.78
2023-12-01 03:12:00,SystemResetWarning,0822.1,5.01,000.00,021.2,020.3,000.0,029.6,022.5,12.1,0000.0,0005.41,0010.73,0004.79
2023-12-01 03:13:00,SystemResetWarning,0822.1,5.01,000.00,021.3,020.3,000.0,029.6,022.5,12.1,0000.0,0005.37,0011.43,0004.80
2023-12-01 03:14:00,SystemResetWarning,0822.2,5.00,000.00,021.3,020.3,000.0,029.6,022.5,12.2,0000.0,0005.34,0011.49,0004.80
2023-12-01 03:15:00,SystemResetWarning,0822.2,5.00,000.00,021.3,020.3,000.0,029.6,022.5,12.2,0000.0,0005.32,0011.60,0004.80
2023-12-01 03:16:00,SystemResetWarning,0822.2,5.00,000.00,021.3,020.4,000.0,029.6,022.5,12.3,0000.0,0005.33,0011.63,0004.79
2023-12-01 03:17:00,SystemResetWarning,0822.2,5.00,000.00,021.3,020.3,000.0,029.6,022.5,12.3,0000.0,0005.32,0012.45,0004.79
2023-12-01 03:18:00,SystemResetWarning,0822.2,5.00,000.00,021.3,020.3,000.0,029.6,022.5,12.3,0000.0,0005.34,0012.42,0004.80
2023-12-01 03:19:00,SystemResetWarning,0822.1,5.00,000.00,021.3,020.3,000.0,029.6,022.5,12.3,0000.0,0005.34,0012.32,0004.82
2023-12-01 03:20:00,SystemResetWarning,0822.1,4.99,000.00,021.3,020.3,000.0,029.6,022.5,12.3,0000.0,0005.36,0012.29,0004.84
2023-12-01 03:21:00,SystemResetWarning,0822.1,4.99,000.00,021.3,020.3,000.0,029.6,022.6,12.4,0000.0,0005.38,0012.05,0004.85
2023-12-01 03:22:00,SystemResetWarning,0822.1,5.01,000.00,021.3,020.3,000.0,029.6,022.5,12.4,0000.0,0005.40,0011.85,0004.86
2023-12-01 03:23:00,SystemResetWarning,0822.2,5.01,000.00,021.3,020.3,000.0,029.6,022.5,12.4,0000.0,0005.44,0012.64,0004.88
2023-12-01 03:24:00,SystemResetWarning,0822.1,5.00,000.00,021.3,020.3,000.0,029.6,022.6,12.4,0000.0,0005.45,0011.94,0004.88
2023-12-01 03:25:00,SystemResetWarning,0822.1,5.00,000.00,021.3,020.3,000.0,029.6,022.6,12.4,0000.0,0005.45,0011.87,0004.89
2023-12-01 03:26:00,SystemResetWarning,0822.1,5.00,000.00,021.3,020.3,000.0,029.6,022.6,12.4,0000.0,0005.46,0012.39,0004.89
2023-12-01 03:27:00,SystemResetWarning,0822.1,5.00,000.00,021.3,020.3,000.0,029.6,022.6,12.4,0000.0,0005.50,0013.45,0004.91
2023-12-01 03:28:00,SystemResetWarning,0822.1,5.00,000.00,021.3,020.3,000.0,029.6,022.5,12.4,0000.0,0005.50,0012.86,0004.92
2023-12-01 03:29:00,SystemResetWarning,0822.1,4.99,000.00,021.3,020.3,000.0,029.6,022.6,12.4,0000.0,0005.51,0013.28,0004.94
2023-12-01 03:30:00,SystemResetWarning,0822.1,4.99,000.00,021.3,020.3,000.0,029.6,022.5,12.4,0000.0,0005.53,0013.61,0004.94
2023-12-01 03:31:00,SystemResetWarning,0822.1,5.00,000.00,021.3,020.3,000.0,029.6,022.5,12.5,0000.0,0005.52,0013.72,0004.93
2023-12-01 03:32:00,SystemResetWarning,0822.1,5.00,000.00,021.3,020.3,000.0,029.6,022.5,12.5,0000.0,0005.54,0013.73,0004.94
2023-12-01 03:33:00,SystemResetWarning,0822.1,5.01,000.00,021.3,020.3,000.0,029.6,022.5,12.6,0000.0,0005.53,0013.39,0004.95
2023-12-01 03:34:00,SystemResetWarning,0822.1,5.00,000.00,021.3,020.3,000.0,029.6,022.6,12.6,0000.0,0005.53,0012.84,0004.95
2023-12-01 03:35:00,SystemResetWarning,0822.1,5.00,000.00,021.3,020.3,000.0,029.6,022.5,12.6,0000.0,0005.54,0012.64,0004.95
2023-12-01 03:36:00,SystemResetWarning,0822.1,5.00,000.00,021.3,020.3,000.0,029.6,022.5,12.7,0000.0,0005.54,0012.51,0004.95
2023-12-01 03:37:00,SystemResetWarning,0822.1,5.00,000.00,021.3,020.3,000.0,029.6,022.5,12.8,0000.0,0005.57,0011.90,0004.96
2023-12-01 03:38:00,SystemResetWarning,0822.1,5.00,000.00,021.3,020.3,000.0,029.6,022.5,12.8,0000.0,0005.57,0010.51,0004.98
2023-12-01 03:39:00,SystemResetWarning,0822.1,5.00,000.00,021.3,020.3,000.0,029.6,022.5,12.9,0000.0,0005.57,0010.35,0004.99
2023-12-01 03:40:00,SystemResetWarning,0822.0,5.00,000.00,021.3,020.3,000.0,029.6,022.6,12.9,0000.0,0005.59,0010.09,0005.00
2023-12-01 03:41:00,SystemResetWarning,0822.1,5.00,000.00,021.3,020.3,000.0,029.6,022.6,12.9,0000.0,0005.60,0009.92,0005.02
2023-12-01 03:42:00,SystemResetWarning,0822.1,5.00,000.00,021.3,020.3,000.0,029.6,022.5,12.9,0000.0,0005.63,0009.75,0005.06
2023-12-01 03:43:00,SystemResetWarning,0822.1,4.99,000.00,021.3,020.3,000.0,029.6,022.6,13.0,0000.0,0005.69,0010.17,0005.10
2023-12-01 03:44:00,SystemResetWarning,0822.0,5.00,000.00,021.3,020.3,000.0,029.6,022.6,13.0,0000.0,0005.75,0010.70,0005.16
2023-12-01 03:45:00,SystemResetWarning,0822.1,5.00,000.00,021.3,020.3,000.0,029.6,022.6,13.0,0000.0,0005.86,0011.71,0005.23
2023-12-01 03:46:00,SystemResetWarning,0822.1,5.00,000.00,021.3,020.3,000.0,029.6,022.6,13.0,0000.0,0005.93,0011.72,0005.32
2023-12-01 03:47:00,SystemResetWarning,0822.1,4.99,000.00,021.3,020.3,000.0,029.6,022.6,13.0,0000.0,0006.04,0012.01,0005.39
2023-12-01 03:48:00,SystemResetWarning,0822.1,5.00,000.00,021.3,020.3,000.0,029.6,022.5,13.1,0000.0,0006.13,0012.14,0005.47
2023-12-01 03:49:00,SystemResetWarning,0822.1,5.00,000.00,021.3,020.3,000.0,029.5,022.5,13.1,0000.0,0006.21,0012.52,0005.52
2023-12-01 03:50:00,SystemResetWarning,0822.1,5.00,000.00,021.3,020.3,000.0,029.5,022.5,13.1,0000.0,0006.27,0013.06,0005.58
2023-12-01 03:51:00,SystemResetWarning,0822.1,5.00,000.00,021.3,020.3,000.0,029.5,022.5,13.1,0000.0,0006.33,0012.93,0005.63
2023-12-01 03:52:00,SystemResetWarning,0822.0,5.00,000.00,021.2,020.3,000.0,029.5,022.5,13.2,0000.0,0006.44,0013.21,0005.69
2023-12-01 03:53:00,SystemResetWarning,0822.1,5.00,000.00,021.2,020.3,000.0,029.5,022.6,13.2,0000.0,0006.51,0013.33,0005.75
2023-12-01 03:54:00,SystemResetWarning,0822.0,4.99,000.00,021.2,020.3,000.0,029.5,022.6,13.2,0000.0,0006.57,0013.19,0005.79
2023-12-01 03:55:00,SystemResetWarning,0822.1,5.01,000.00,021.2,020.3,000.0,029.5,022.5,13.1,0000.0,0006.60,0012.96,0005.81
2023-12-01 03:56:00,SystemResetWarning,0822.1,5.01,000.00,021.2,020.3,000.0,029.5,022.5,13.2,0000.0,0006.59,0011.75,0005.82
2023-12-01 03:57:00,SystemResetWarning,0822.1,4.99,000.00,021.2,020.2,000.0,029.5,022.5,13.2,0000.0,0006.65,0012.36,0005.81
2023-12-01 03:58:00,SystemResetWarning,0822.1,5.00,000.00,021.2,020.2,000.0,029.5,022.5,13.2,0000.0,0006.69,0013.44,0005.82
2023-12-01 03:59:00,SystemResetWarning,0822.1,4.99,000.00,021.2,020.2,000.0,029.5,022.5,13.3,0000.0,0006.67,0013.42,0005.81
